[[{"header":{"parameterUnit":"m.s-1","parameterCategory":1,"la1":30.2991,"la2":30.254,"lo1":-89.0895,"lo2":-89.0444,"dy":0.0017,"dx":0.0017,"nx":28,"ny":28,"refTime":"2023-10-31T03:00:00:Z","depth":0,"parameterNumber":2,"parameterNumberName":"U-component_of_WINDS"},"data":[0,0,0,0,0,0,0,0,0,0,0,0,0,0,0,0,0,0,0,0,0,0,0,0,0,0,0,0,0,0,0,0,0,0,0,0,0,0,0,0,0,0,0,0,0,0,0,0,0,0,0,0,0,0,0,0,0,0,0.9938,0.9938,0,0.9881,0.988,0.988,0.9861,0.9861,0.9861,0.9862,0.9799,0.9798,0.9796,0,0,0,0,0,0,0,0,0,0,0,0,0,1.003,1.0028,0.9938,0.9938,0.9937,0.9881,0.988,0.9879,0.9861,0.9861,0.9861,0.9862,0.98,0.9798,0.9795,0,0,0,0,0,0,0,0,0,0,0,0,0,0.9983,1.0028,0.9939,0.9921,0.9919,0.9881,0.988,0.9879,0.9861,0.9861,0.9861,0.9862,0.9801,0.9798,0.9795,0.977,0,0,0.9786,0.9785,0,0,0,0,0,0,0,0,0.9986,0.998,0.9924,0.9922,0.992,0.9878,0.989,0.9842,0.9861,0.9883,0.9862,0.9862,0.9825,0.982,0.9809,0.9767,0.9764,0.9786,0.9784,0.9783,0.9782,0,0,0,0,0,0,0,0.9989,0.9982,0.9916,0.9923,0.9921,0.9915,0.9909,0.9881,0.9852,0.9881,0.9879,0.9873,0.9824,0.9811,0.9807,0.9763,0.9786,0.9784,0.9782,0.9781,0.9699,0.9698,0,0,0,0,0,0,0.9996,0.9985,0.9917,0.9914,0.9954,0.9913,0.9906,0.9891,0.9853,0.9847,0.9873,0.9872,0.9816,0.981,0.9805,0.9773,0.9783,0.9781,0.9779,0.9699,0.9698,0.9698,0,0,0,0,0,0,0.9998,0.999,0.992,0.9949,0.994,0.9911,0.9895,0.989,0.9877,0.9846,0.9841,0.9865,0.9816,0.9809,0.9779,0.977,0.9779,0.9777,0.97,0.9699,0.9698,0.9708,0,0,0,0,0,0,1.0,0.9991,0.9981,0.9949,0.9938,0.9895,0.9894,0.9888,0.9873,0.9872,0.9838,0.9833,0.9816,0.9783,0.9776,0.9766,0.9775,0.97,0.9699,0.9698,0.9708,0.9708,0.9707,0,0,0,0,0,1.0004,0.9985,0.9981,0.9972,0.9926,0.9895,0.9889,0.9871,0.9872,0.9862,0.9843,0.9834,0.9773,0.978,0.9772,0.9761,0.9701,0.97,0.9699,0.9709,0.9708,0.9707,0,0,0,0,0,0,1.0015,0.998,0.9975,0.9946,0.9924,0.9892,0.9878,0.987,0.9846,0.9846,0.9824,0.9817,0.9789,0.9772,0.9781,0.9735,0.9736,0.9733,0.9747,0.9746,0.9745,0.9749,0.9772,0,0,0,0,0,1.0015,0.9994,0.9964,0.9941,0.993,0.9907,0.9892,0.9881,0.9856,0.9847,0.9825,0.9801,0.9776,0.976,0.9736,0.9707,0.9699,0.9695,0.9695,0.9695,0.9692,0.9676,0.9674,0.9694,0.9694,0.9694,0,0,1.0012,0.9991,0.9979,0.9943,0.9924,0.9902,0.9899,0.9875,0.9858,0.9843,0.9813,0.9797,0.9769,0.9739,0.9725,0.9725,0.9685,0.9693,0.9693,0.9691,0.9674,0.9672,0.9671,0.9694,0.9694,0.9694,0,0,0.9997,0.9979,0.9959,0.9941,0.9913,0.9898,0.9893,0.9863,0.9852,0.9823,0.9811,0.979,0.9748,0.9729,0.9713,0.9694,0.9685,0.9686,0.9683,0.9667,0.9666,0.9664,0.9657,0.9654,0.9684,0.9684,0.9684,0,0.9998,0.9965,0.9948,0.9926,0.9911,0.9897,0.9876,0.9859,0.9825,0.9814,0.9815,0.9763,0.9743,0.9709,0.9704,0.9692,0.9686,0.9689,0.9667,0.9666,0.9664,0.9657,0.9654,0.9684,0.9684,0.9684,0.9684,0,0.9967,0.9945,0.9931,0.99,0.9883,0.9861,0.9841,0.9826,0.9816,0.9801,0.9771,0.9747,0.9718,0.971,0.9699,0.9674,0.9675,0.9672,0.9672,0.9663,0.9655,0.9652,0.9685,0.9685,0.9685,0.9685,0,0,0.9956,0.9917,0.9912,0.9899,0.9868,0.985,0.9828,0.9801,0.9789,0.9766,0.9746,0.9712,0.971,0.9692,0.968,0.9667,0.9652,0.9665,0.9664,0.9663,0.9624,0.9626,0.9623,0.9647,0.9647,0.9646,0.9626,0,0.9936,0.9897,0.9882,0.9849,0.9829,0.9817,0.9797,0.9777,0.9762,0.9742,0.9725,0.9701,0.97,0.9689,0.9676,0.9657,0.9644,0.9658,0.9628,0.9627,0.9634,0.9619,0.962,0.9603,0.9623,0.9622,0.9622,0,0.9908,0.9886,0.9852,0.9826,0.9816,0.9799,0.9774,0.9755,0.9732,0.9722,0.9704,0.9693,0.9669,0.9672,0.9639,0.9649,0.9636,0.9625,0.9624,0.9619,0.9623,0.9613,0.9596,0.9593,0.9618,0.9618,0.9618,0,0.9902,0.9865,0.984,0.9828,0.9797,0.9786,0.9772,0.9749,0.9734,0.9712,0.9702,0.9677,0.9663,0.9644,0.9626,0.963,0.9594,0.9596,0.9585,0.9586,0.9577,0.9577,0.9557,0.957,0.957,0.957,0.957,0,0.9881,0.9861,0.9837,0.9822,0.9798,0.9782,0.9759,0.9745,0.9725,0.9706,0.9694,0.9676,0.9655,0.9634,0.9621,0.9595,0.9589,0.958,0.9577,0.9581,0.9582,0.9571,0.9571,0.957,0.957,0.957,0.957,0,0.987,0.9854,0.9826,0.98,0.9792,0.9776,0.9753,0.9738,0.9724,0.97,0.9693,0.9671,0.9646,0.9628,0.9595,0.9586,0.9559,0.9556,0.9567,0.9565,0.9555,0.9556,0.9526,0.9521,0.9539,0.9539,0.9539,0,0.9858,0.9842,0.9814,0.9802,0.9788,0.9768,0.9753,0.9737,0.9722,0.9695,0.9682,0.9657,0.9636,0.9598,0.9578,0.9554,0.9549,0.9541,0.9545,0.955,0.9548,0.9549,0.9547,0.9539,0.9539,0.9539,0.9539,0,0.9836,0.983,0.9809,0.9787,0.977,0.9751,0.9732,0.9722,0.9702,0.9686,0.9662,0.9646,0.9614,0.9589,0.9563,0.9548,0.954,0.9538,0.9534,0.9537,0.9545,0.954,0.9565,0.9538,0.9538,0.9538,0.9538,0.9539,0.9824,0.9809,0.9788,0.9766,0.9751,0.9733,0.9718,0.9703,0.9682,0.9656,0.9648,0.9622,0.96,0.9565,0.955,0.953,0.953,0.9524,0.9522,0.9521,0.9521,0.9549,0.9525,0.9525,0.9525,0.9525,0.9525,0,0.9801,0.9788,0.9768,0.9742,0.9725,0.9721,0.97,0.9686,0.9664,0.9645,0.9625,0.9598,0.9574,0.9554,0.9529,0.9517,0.9513,0.9511,0.9511,0.9508,0.9523,0.9529,0.9515,0.9515,0.9515,0.9515,0.9515,0.9515,0.9788,0.9763,0.9754,0.9722,0.9708,0.9685,0.9673,0.9657,0.9642,0.9612,0.9593,0.958,0.956,0.9535,0.9513,0.9508,0.9499,0.9498,0.9492,0.9506,0.9507,0.9508,0.9513,0.9497,0.9497,0.9478,0.9478,0.9478]},{"header":{"parameterUnit":"m.s-1","parameterCategory":1,"la1":30.2991,"la2":30.254,"lo1":-89.0895,"lo2":-89.0444,"dy":0.0017,"dx":0.0017,"nx":28,"ny":28,"refTime":"2023-10-31T03:00:00:Z","depth":0,"parameterNumber":3,"parameterNumberName":"V-component_of_WINDS"},"data":[0,0,0,0,0,0,0,0,0,0,0,0,0,0,0,0,0,0,0,0,0,0,0,0,0,0,0,0,0,0,0,0,0,0,0,0,0,0,0,0,0,0,0,0,0,0,0,0,0,0,0,0,0,0,0,0,0,0,-9.7675,-9.7677,0,-9.7883,-9.7885,-9.7888,-9.7784,-9.7779,-9.7773,-9.7768,-9.7973,-9.7983,-9.7993,0,0,0,0,0,0,0,0,0,0,0,0,0,-9.718,-9.7189,-9.7674,-9.7677,-9.768,-9.7882,-9.7885,-9.7888,-9.7785,-9.7778,-9.7772,-9.7766,-9.7969,-9.7982,-9.7994,0,0,0,0,0,0,0,0,0,0,0,0,0,-9.7392,-9.7193,-9.7674,-9.7653,-9.7653,-9.7882,-9.7885,-9.7889,-9.7786,-9.7778,-9.777,-9.7763,-9.7965,-9.798,-9.7996,-9.8255,0,0,-9.8044,-9.8051,0,0,0,0,0,0,0,0,-9.738,-9.741,-9.7653,-9.7655,-9.7655,-9.7799,-9.7786,-9.8011,-9.7788,-9.7736,-9.7768,-9.7759,-9.7921,-9.794,-9.7996,-9.8264,-9.8273,-9.8045,-9.8055,-9.8062,-9.8066,0,0,0,0,0,0,0,-9.7365,-9.74,-9.7756,-9.7657,-9.7658,-9.763,-9.7652,-9.7828,-9.7871,-9.7739,-9.7733,-9.7759,-9.792,-9.7982,-9.8,-9.8276,-9.8045,-9.8059,-9.8069,-9.8075,-9.8768,-9.8776,0,0,0,0,0,0,-9.7353,-9.7389,-9.775,-9.7763,-9.7495,-9.7646,-9.767,-9.7761,-9.7869,-9.7877,-9.7766,-9.7753,-9.7959,-9.7982,-9.8007,-9.8318,-9.8061,-9.8076,-9.8085,-9.8759,-9.877,-9.8779,0,0,0,0,0,0,-9.7343,-9.7386,-9.7741,-9.7574,-9.7617,-9.7663,-9.7767,-9.777,-9.7831,-9.7889,-9.7895,-9.7822,-9.7953,-9.7985,-9.8195,-9.8324,-9.8083,-9.8098,-9.8748,-9.8762,-9.8774,-9.8943,0,0,0,0,0,0,-9.7329,-9.7383,-9.7484,-9.7577,-9.7627,-9.7929,-9.7775,-9.7779,-9.786,-9.7845,-9.7943,-9.7951,-9.7949,-9.8172,-9.8211,-9.8341,-9.811,-9.8737,-9.8754,-9.877,-9.8926,-9.896,-9.899,0,0,0,0,0,-9.7311,-9.752,-9.7489,-9.7533,-9.7754,-9.7936,-9.7964,-9.7961,-9.787,-9.7971,-9.8008,-9.7948,-9.8304,-9.8194,-9.8237,-9.8374,-9.8728,-9.8749,-9.8769,-9.8911,-9.8953,-9.8989,0,0,0,0,0,0,-9.7437,-9.7532,-9.7499,-9.7745,-9.7834,-9.7919,-9.8045,-9.8005,-9.8119,-9.8101,-9.8089,-9.8112,-9.833,-9.8372,-9.8249,-9.8631,-9.8502,-9.8531,-9.8595,-9.8636,-9.8667,-9.8652,-9.8123,0,0,0,0,0,-9.7494,-9.7637,-9.7711,-9.7921,-9.7968,-9.8,-9.8078,-9.8069,-9.8159,-9.8195,-9.8247,-9.8335,-9.8466,-9.8553,-9.8677,-9.8931,-9.895,-9.9046,-9.9078,-9.9104,-9.913,-9.9268,-9.9311,-9.8846,-9.8845,-9.8845,0,0,-9.7612,-9.7682,-9.7772,-9.7948,-9.8016,-9.8162,-9.8031,-9.8191,-9.8299,-9.8218,-9.8421,-9.8462,-9.8559,-9.8793,-9.8898,-9.8835,-9.9263,-9.913,-9.915,-9.9162,-9.9293,-9.9337,-9.9376,-9.8859,-9.8857,-9.8855,0,0,-9.7902,-9.797,-9.8153,-9.8224,-9.833,-9.835,-9.8394,-9.8486,-9.8511,-9.8715,-9.8658,-9.8784,-9.9011,-9.9083,-9.9149,-9.9468,-9.9417,-9.9508,-9.9675,-9.981,-9.9846,-9.9879,-9.9993,-10.0035,-9.9534,-9.9534,-9.9534,0,-9.8035,-9.8256,-9.8251,-9.8417,-9.8496,-9.8433,-9.8617,-9.8685,-9.8825,-9.8879,-9.8807,-9.9092,-9.9152,-9.9402,-9.9481,-9.9536,-9.9585,-9.9497,-9.9842,-9.9875,-9.9905,-10.0014,-10.0057,-9.9545,-9.9543,-9.9542,-9.9541,0,-9.8414,-9.8568,-9.8703,-9.8843,-9.8937,-9.9111,-9.913,-9.9225,-9.9207,-9.9234,-9.9442,-9.9513,-9.9651,-9.9709,-9.9691,-9.9957,-9.9915,-9.9843,-9.9713,-9.996,-10.0062,-10.0104,-9.956,-9.9556,-9.9553,-9.955,0,0,-9.8789,-9.8926,-9.8976,-9.9039,-9.9152,-9.9269,-9.9439,-9.9578,-9.966,-9.9757,-9.99,-10.0094,-10.0029,-10.0104,-10.0094,-10.0212,-10.0461,-10.0126,-10.0128,-10.0186,-10.0758,-10.0813,-10.0861,-10.0428,-10.0436,-10.0442,-10.0751,0,-9.9088,-9.939,-9.9391,-9.9669,-9.9811,-9.9753,-9.9902,-9.9985,-10.0015,-10.0138,-10.0168,-10.0307,-10.0211,-10.0256,-10.037,-10.0407,-10.0576,-10.0384,-10.0558,-10.0565,-10.0537,-10.0914,-10.0972,-10.126,-10.079,-10.0797,-10.0802,0,-9.9477,-9.9592,-9.9885,-9.9979,-10.0038,-10.0172,-10.0299,-10.0418,-10.051,-10.0523,-10.0609,-10.0581,-10.0752,-10.0618,-10.0853,-10.0723,-10.0794,-10.0822,-10.0833,-10.085,-10.0699,-10.0942,-10.1351,-10.1395,-10.0865,-10.086,-10.0855,0,-9.9723,-9.995,-10.0155,-10.0211,-10.0324,-10.042,-10.0471,-10.0557,-10.064,-10.075,-10.0804,-10.0931,-10.1001,-10.1099,-10.1105,-10.1007,-10.1343,-10.1208,-10.1358,-10.1358,-10.1431,-10.1427,-10.1859,-10.1476,-10.1476,-10.1475,-10.1474,0,-10.0057,-10.0239,-10.0268,-10.0394,-10.0595,-10.0594,-10.0792,-10.0834,-10.0911,-10.1043,-10.0999,-10.1123,-10.1124,-10.125,-10.1255,-10.1449,-10.148,-10.1495,-10.1494,-10.15,-10.1498,-10.1546,-10.1527,-10.1486,-10.1484,-10.1481,-10.1479,0,-10.0365,-10.0392,-10.0612,-10.0703,-10.073,-10.0874,-10.095,-10.1069,-10.1095,-10.1263,-10.1302,-10.1342,-10.1488,-10.1504,-10.1673,-10.1676,-10.1911,-10.1888,-10.1881,-10.1878,-10.2027,-10.2013,-10.2506,-10.257,-10.2145,-10.2149,-10.2152,0,-10.0577,-10.0717,-10.0823,-10.091,-10.0968,-10.1107,-10.1193,-10.1196,-10.1287,-10.1405,-10.151,-10.1652,-10.1766,-10.2002,-10.2044,-10.2173,-10.2153,-10.2317,-10.2172,-10.2174,-10.2157,-10.2149,-10.2163,-10.2345,-10.235,-10.2354,-10.2357,0,-10.0951,-10.0958,-10.1085,-10.1219,-10.1323,-10.1427,-10.1524,-10.1597,-10.1612,-10.1716,-10.1867,-10.1956,-10.213,-10.2272,-10.2399,-10.2448,-10.2406,-10.2402,-10.2444,-10.2451,-10.2442,-10.245,-10.1959,-10.2391,-10.2388,-10.2385,-10.2383,-10.2382,-10.1219,-10.134,-10.1435,-10.1578,-10.1653,-10.1745,-10.1862,-10.1904,-10.2031,-10.2176,-10.2169,-10.2335,-10.2424,-10.2591,-10.265,-10.2778,-10.2723,-10.2783,-10.2799,-10.2814,-10.283,-10.2421,-10.2801,-10.28,-10.2799,-10.2798,-10.2798,0,-10.1591,-10.165,-10.1782,-10.1921,-10.2034,-10.1987,-10.2092,-10.2189,-10.2337,-10.2425,-10.254,-10.2713,-10.285,-10.2905,-10.3038,-10.3131,-10.3115,-10.3166,-10.3159,-10.3171,-10.287,-10.2822,-10.3177,-10.3177,-10.3177,-10.3177,-10.3176,-10.3176,-10.1798,-10.2002,-10.202,-10.226,-10.2316,-10.2481,-10.2546,-10.263,-10.2701,-10.2898,-10.3013,-10.3049,-10.3123,-10.3262,-10.3385,-10.3397,-10.3449,-10.3509,-10.3513,-10.3231,-10.3192,-10.3156,-10.311,-10.352,-10.3521,-10.3803,-10.3806,-10.3808]}]]